OK1FET-5 Weather Reports


Display with metric or nautical units.
time (UTC)temp
F
wind
direction
speed
MPH
gust
MPH
rain 1hr
in
rain 24hr
in
rain mn
in
humidity
%
barometer
mb
20260905193202 62 297 2.0 5.0 0.00 0.00 0.00 52 1023.4
20260905192207 62 307 3.0 5.0 0.00 0.00 0.00 52 1023.4
20260905191211 62 293 2.0 8.0 0.00 0.00 0.00 51 1023.4
20260905190215 62 284 2.0 4.0 0.00 0.00 0.00 51 1023.1
20260905185219 63 311 2.0 8.0 0.00 0.00 0.00 50 1023.0
20260905184223 64 305 3.0 7.0 0.00 0.00 0.00 49 1022.8
20260905183228 64 311 4.0 9.0 0.00 0.00 0.00 49 1022.8
20260905181236 63 302 3.0 9.0 0.00 0.00 0.00 50 1022.5
20260905175245 65 282 4.0 7.0 0.00 0.00 0.00 48 1022.1
20260905174249 65 289 3.0 5.0 0.00 0.00 0.00 48 1021.8
20260905173253 65 296 3.0 6.0 0.00 0.00 0.00 46 1021.7
20260905172257 66 300 3.0 9.0 0.00 0.00 0.00 45 1021.6
20260905171302 67 284 3.0 6.0 0.00 0.00 0.00 44 1021.6
20260905170306 68 298 4.0 8.0 0.00 0.00 0.00 43 1021.4
20260905165310 70 296 4.0 10.0 0.00 0.00 0.00 42 1021.4
20260905164314 71 310 4.0 8.0 0.00 0.00 0.00 41 1021.1
20260905163319 72 321 4.0 8.0 0.00 0.00 0.00 40 1021.1
20260905162323 73 334 4.0 9.0 0.00 0.00 0.00 39 1021.0
20260905161327 73 315 5.0 13.0 0.00 0.00 0.00 38 1020.9
20260905160331 75 321 5.0 12.0 0.00 0.00 0.00 37 1020.8
20260905155336 76 313 4.0 10.0 0.00 0.00 0.00 37 1020.6
20260905154340 74 315 5.0 12.0 0.00 0.00 0.00 38 1020.6
20260905153344 74 321 5.0 13.0 0.00 0.00 0.00 37 1020.6
20260905152348 75 327 7.0 15.0 0.00 0.00 0.00 36 1020.5
20260905151352 75 308 5.0 11.0 0.00 0.00 0.00 36 1020.5
20260905150357 77 297 7.0 12.0 0.00 0.00 0.00 34 1020.5
20260905145401 77 307 5.0 13.0 0.00 0.00 0.00 36 1020.5
20260905144405 75 315 5.0 10.0 0.00 0.00 0.00 37 1020.5
20260905143410 75 325 4.0 8.0 0.00 0.00 0.00 37 1020.4
20260905142414 77 311 5.0 11.0 0.00 0.00 0.00 36 1020.4
20260905141418 76 296 3.0 7.0 0.00 0.00 0.00 37 1020.4
20260905140422 75 301 6.0 12.0 0.00 0.00 0.00 38 1020.5
20260905135426 76 309 5.0 9.0 0.00 0.00 0.00 36 1020.5
20260905134431 77 314 4.0 7.0 0.00 0.00 0.00 36 1020.6
20260905133435 80 292 4.0 7.0 0.00 0.00 0.00 35 1020.4
20260905132439 81 307 6.0 12.0 0.00 0.00 0.00 34 1020.4
20260905131443 80 314 6.0 9.0 0.00 0.00 0.00 35 1020.5
20260905130447 79 312 5.0 11.0 0.00 0.00 0.00 36 1020.5
20260905125451 79 325 4.0 9.0 0.00 0.00 0.00 36 1020.5
20260905124456 78 326 5.0 9.0 0.00 0.00 0.00 37 1020.3
20260905123500 76 349 4.0 9.0 0.00 0.00 0.00 39 1020.6
20260905122504 77 313 4.0 6.0 0.00 0.00 0.00 37 1020.6
20260905121508 78 296 4.0 10.0 0.00 0.00 0.00 36 1020.7
20260905120513 82 312 5.0 14.0 0.00 0.00 0.00 35 1020.6
20260905115517 79 314 6.0 11.0 0.00 0.00 0.00 36 1020.8
20260905114521 80 301 8.0 14.0 0.00 0.00 0.00 36 1020.7
20260905113525 80 290 6.0 14.0 0.00 0.00 0.00 36 1020.8
20260905112530 76 295 4.0 8.0 0.00 0.00 0.00 40 1020.9
20260905111534 77 302 5.0 9.0 0.00 0.00 0.00 39 1021.0
20260905110538 76 285 7.0 14.0 0.00 0.00 0.00 38 1021.0
20260905105542 78 282 5.0 10.0 0.00 0.00 0.00 38 1021.0
20260905104546 76 290 6.0 12.0 0.00 0.00 0.00 39 1020.9
20260905103551 74 282 7.0 14.0 0.00 0.00 0.00 41 1020.6
20260905102555 77 285 6.0 13.0 0.00 0.00 0.00 39 1020.9
20260905101559 77 274 5.0 9.0 0.00 0.00 0.00 40 1021.0
20260905100603 77 282 7.0 13.0 0.00 0.00 0.00 40 1021.1
20260905095607 76 270 6.0 12.0 0.00 0.00 0.00 42 1020.9
20260905094612 78 276 7.0 13.0 0.00 0.00 0.00 40 1020.8
20260905093616 77 281 8.0 14.0 0.00 0.00 0.00 39 1020.9
20260905092620 76 286 7.0 15.0 0.00 0.00 0.00 40 1020.9
20260905091624 75 281 7.0 13.0 0.00 0.00 0.00 41 1020.8
20260905090629 76 273 7.0 17.0 0.00 0.00 0.00 41 1020.8
20260905085633 73 283 9.0 15.0 0.00 0.00 0.00 44 1020.8
20260905084637 75 276 7.0 17.0 0.00 0.00 0.00 42 1020.8
20260905083641 75 278 7.0 14.0 0.00 0.00 0.00 46 1020.9
20260905082645 74 288 8.0 16.0 0.00 0.00 0.00 45 1020.8
20260905081650 75 285 7.0 12.0 0.00 0.00 0.00 45 1020.8
20260905080654 74 278 7.0 12.0 0.00 0.00 0.00 47 1020.7
20260905075659 72 280 6.0 12.0 0.00 0.00 0.00 50 1020.7
20260905074702 73 278 6.0 12.0 0.00 0.00 0.00 49 1020.5
20260905073706 72 273 7.0 13.0 0.00 0.00 0.00 52 1020.3
20260905072711 72 271 6.0 13.0 0.00 0.00 0.00 53 1020.4
20260905071715 72 270 4.0 11.0 0.00 0.00 0.00 54 1020.3
20260905070719 70 268 5.0 13.0 0.00 0.00 0.00 57 1020.3
20260905065724 72 259 4.0 9.0 0.00 0.00 0.00 57 1020.4
20260905064728 70 265 4.0 12.0 0.00 0.00 0.00 58 1020.4
20260905063732 68 266 5.0 11.0 0.00 0.00 0.00 62 1020.3
20260905062736 67 267 5.0 11.0 0.00 0.00 0.00 63 1020.2
20260905061740 67 263 5.0 11.0 0.00 0.00 0.00 66 1020.2
20260905060745 66 249 3.0 7.0 0.00 0.00 0.00 69 1020.2
20260905055749 64 279 3.0 5.0 0.00 0.00 0.00 73 1020.1
20260905054753 63 274 3.0 6.0 0.00 0.00 0.00 72 1019.9
20260905053757 64 269 3.0 6.0 0.00 0.00 0.00 73 1019.8
20260905052802 62 246 2.0 7.0 0.00 0.00 0.00 75 1019.7
20260905051806 60 254 1.0 6.0 0.00 0.00 0.00 78 1019.5
20260905050810 56 259 2.0 4.0 0.00 0.00 0.00 83 1019.4
20260905045814 56 265 3.0 6.0 0.00 0.00 0.00 83 1019.2
20260905044819 56 275 3.0 6.0 0.00 0.00 0.00 82 1019.0
20260905043823 56 272 2.0 4.0 0.00 0.00 0.00 82 1018.9
20260905042827 56 285 2.0 6.0 0.00 0.00 0.00 82 1018.9
20260905041831 57 277 3.0 5.0 0.00 0.00 0.00 82 1018.7
20260905035840 57 294 2.0 4.0 0.00 0.00 0.00 81 1018.8
20260905034844 57 295 2.0 4.0 0.00 0.00 0.00 81 1018.7
20260905033849 57 276 3.0 6.0 0.00 0.00 0.00 81 1018.4
20260905032853 57 258 5.0 11.0 0.00 0.00 0.00 82 1017.8
20260905030902 57 268 2.0 6.0 0.00 0.00 0.00 80 1018.1
20260905025906 57 281 3.0 7.0 0.00 0.00 0.00 79 1018.3
20260905024910 58 283 4.0 8.0 0.00 0.00 0.00 80 1018.1
20260905023914 58 266 4.0 7.0 0.00 0.00 0.00 77 1017.8
20260905022919 59 265 5.0 8.0 0.00 0.00 0.00 75 1017.8
20260905021923 59 264 3.0 7.0 0.00 0.00 0.00 73 1017.4
20260905020927 60 264 4.0 8.0 0.00 0.00 0.00 71 1017.5
20260905015931 59 263 2.0 7.0 0.00 0.00 0.00 72 1017.1
20260905014936 59 258 2.0 6.0 0.00 0.00 0.00 73 1017.2
20260905013940 60 268 2.0 4.0 0.00 0.00 0.00 73 1017.4
20260905012944 60 291 3.0 7.0 0.00 0.00 0.00 73 1016.8
20260905011948 60 274 3.0 5.0 0.00 0.00 0.00 73 1016.8
20260905010953 60 279 3.0 5.0 0.00 0.00 0.00 73 1016.4
20260905005957 60 297 2.0 6.0 0.00 0.00 0.00 75 1016.4
20260905005001 60 277 4.0 7.0 0.00 0.00 0.00 77 1016.7
20260905004005 60 271 3.0 6.0 0.00 0.00 0.00 77 1016.7
20260905003010 60 271 3.0 7.0 0.00 0.00 0.00 76 1016.8
20260905002014 60 268 4.0 8.0 0.00 0.00 0.00 77 1016.5
20260905001018 60 269 5.0 9.0 0.00 0.00 0.00 78 1016.4
20260905000023 60 272 4.0 11.0 0.00 0.00 0.00 78 1016.0
20260904235027 61 285 2.0 6.0 0.00 0.00 0.00 76 1016.1
20260904234031 61 286 4.0 9.0 0.00 0.00 0.00 77 1016.3
20260904233035 62 281 4.0 9.0 0.00 0.00 0.00 74 1016.3
20260904232039 63 293 3.0 7.0 0.00 0.00 0.00 72 1016.1
20260904231044 63 299 4.0 8.0 0.00 0.00 0.00 70 1016.1
20260904230048 64 313 4.0 9.0 0.00 0.00 0.00 68 1016.4
20260904225052 64 290 3.0 6.0 0.00 0.00 0.00 68 1016.1
20260904224056 64 187 3.0 9.0 0.00 0.00 0.00 70 1015.5
20260904223101 63 180 2.0 6.0 0.00 0.00 0.00 70 1015.6
20260904222105 63 271 2.0 5.0 0.00 0.00 0.00 68 1015.1
20260904215117 63 358 3.0 9.0 0.00 0.00 0.00 68 1013.7
20260904214122 63 318 4.0 8.0 0.00 0.00 0.00 69 1013.7
20260904212130 63 291 3.0 8.0 0.00 0.00 0.00 66 1013.1
20260904211134 64 178 2.0 6.0 0.00 0.00 0.00 64 1013.1
20260904210139 64 87 3.0 8.0 0.00 0.00 0.00 64 1012.7
20260904205143 64 178 2.0 6.0 0.00 0.00 0.00 64 1012.7
20260904204147 65 294 2.0 7.0 0.00 0.00 0.00 61 1012.6
20260904203151 65 47 2.0 6.0 0.00 0.00 0.00 61 1012.6
20260904202155 66 39 3.0 7.0 0.00 0.00 0.00 61 1012.5
20260904201200 67 60 3.0 9.0 0.00 0.00 0.00 60 1012.4
20260904200204 67 37 2.0 7.0 0.00 0.00 0.00 60 1012.6
20260904195208 68 24 2.0 9.0 0.00 0.00 0.00 59 1012.7
20260904194212 69 27 3.0 7.0 0.00 0.00 0.00 58 1012.7